Regional Weather Roundup
Issued by NWS Little Rock, AR

Home | Current Version | Previous Version | Text Only | Print | Product List | Glossary On
Versions: 1 2 3 4 5 6 7 8 9 10 11 12 13 14 15 16 17 18 19 20 21 22 23 24 25 26 27 28 29 30 31
000
ASUS44 KLZK 201705
RWRLZK

WEATHER ROUNDUP FOR ARKANSAS
NATIONAL WEATHER SERVICE LITTLE ROCK AR
1200 PM CDT THU JUL 20 2017

NOTE: "FAIR" INDICATES FEW OR NO CLOUDS BELOW 12,000 FEET WITH NO
SIGNIFICANT WEATHER AND/OR OBSTRUCTIONS TO VISIBILITY.

ARZ001-003-010-029-201800-
NORTHWEST ARKANSAS

CITY           SKY/WX    TMP DP  RH WIND       PRES   REMARKS
FAYETTEVILLE   SUNNY     89  75  63 SW9       30.15S HX  99
FORT SMITH     SUNNY     92  75  57 W8        30.11S HX 103
HARRISON       MOSUNNY   91  72  53 W7        30.15F HX  98
BENTONVILLE    MOSUNNY   90  73  58 SW8       30.15F HX  98
ROGERS         SUNNY     90  73  57 SW10G18   30.15F HX  98
SILOAM SPGS    SUNNY     91  72  52 SW14      30.13F HX  98
HIGHFILL       SUNNY     91  73  55 SW8       30.14F HX  99
SPRINGDALE     SUNNY     90  73  58 SW13G18   30.16F HX  98
$$

ARZ004-005-016-201800-
NORTH CENTRAL ARKANSAS

CITY           SKY/WX    TMP DP  RH WIND       PRES   REMARKS
BATESVILLE     MOSUNNY   90  75  62 W3        30.11F HX 100
FLIPPIN        MOSUNNY   91  72  52 W10       30.10F HX  98
$$

ARZ040-041-201800-
WEST CENTRAL ARKANSAS

CITY           SKY/WX    TMP DP  RH WIND       PRES   REMARKS
MENA           MOSUNNY   91  79  66 W7        30.15F HX 107
MOUNT IDA      MOSUNNY   93  72  50 VRB3      30.12S HX 101
$$

ARZ009-017-025-026-028-201800-
NORTHEAST ARKANSAS

CITY           SKY/WX    TMP DP  RH WIND       PRES   REMARKS
JONESBORO      MOSUNNY   92  76  59 W8        30.10F HX 104
WALNUT RIDGE   PTSUNNY   93  77  59 SW8       30.10F HX 107
BLYTHEVILLE    MOSUNNY   93  77  59 VRB3      30.12S HX 107
$$

ARZ022-023-033-042-044-201800-
CENTRAL ARKANSAS

CITY           SKY/WX    TMP DP  RH WIND       PRES   REMARKS
LITTLE ROCK    MOSUNNY   91  75  59 SW5       30.11F HX 101
N LITTLE ROCK    N/A     91  76  61 W5        30.10F HX 104
JACKSONVILLE   MOSUNNY   93  78  60 SW8       30.11F HX 108
CONWAY           N/A     93  75  55 VRB6      30.09F HX 104
SEARCY         MOSUNNY   92  78  63 CALM      30.12F HX 107
HOT SPRINGS    MOSUNNY   94  74  52 W9        30.12F HX 104
RUSSELLVILLE   MOSUNNY   91  77  63 SW7       30.10F HX 104
CLINTON        FAIR      93  77  59 CALM      30.11F HX 107
$$

ARZ036-201800-
EAST ARKANSAS

CITY           SKY/WX    TMP DP  RH WIND       PRES   REMARKS
WEST MEMPHIS   MOSUNNY   92  76  59 SW7       30.11F HX 104
$$

ARZ050-053-066-070-073-201800-
SOUTHWEST ARKANSAS

CITY           SKY/WX    TMP DP  RH WIND       PRES   REMARKS
ARKADELPHIA    FAIR      92  77  61 SW9       30.12F HX 105
CAMDEN         MOSUNNY   91  75  59 SW5       30.12F HX 102
TEXARKANA      MOSUNNY   91  74  57 SW7       30.13F HX 100
EL DORADO      SUNNY     93  75  55 W9        30.13F HX 104
DE QUEEN       SUNNY     92  78  63 SW10      30.11F HX 107
$$

ARZ056-057-069-201800-
SOUTHEAST ARKANSAS

CITY           SKY/WX    TMP DP  RH WIND       PRES   REMARKS
PINE BLUFF     SUNNY     92  75  57 SW6       30.12F HX 103
STUTTGART      MOSUNNY   95  68  41 SW5       30.13F HX  99
MONTICELLO     MOSUNNY   93  75  55 W5        30.12F HX 104

$$






USA.gov is the U.S. government's official web portal to all federal, state and local government web resources and services.